Location: Leo
(52.0556°N, 112.3605°W)
Time: 09:51:03
(UTC+00:00)

FO-29 - Pass Details

Date: 30 November 2023
Orbit: 799 x 1322 km, 98.6° (Epoch: 01 March)

Event Time Altitude Azimuth Distance (km) Brightness Sun altitude
Rises 12:01:30 0° 12° (NNE) 3,991 12.8 -28.6°
Reaches altitude 10° 12:04:09 10° 5° (N) 3,096 12.2 -28.2°
Enters shadow 12:08:57 35° 329° (NNW) 1,881 10.7 -27.4°
